DAL1434 KLAX-KSLC

Flight info

Callsign DAL1434
Flight time 1h 33m
Altitude 37000
Route ORCKA5 LAS Q70 BLIPP Q842 WINEN MLF PITTT2
Aircraft A320/M-SDE3FGHIRWY/LB1

Departure

Time 2026-05-07 17:23
Airport Los Angeles International Airport (KLAX)

Arrival

Time 2026-05-07 18:57
Airport Salt Lake City International Airport (KSLC)
Time Latitude Longitude Altitude Speed Heading
2026-05-07 16:45 33.94598 -118.40655 93 ft 0 kts 262°
2026-05-07 17:12 33.94600 -118.40644 92 ft 4 kts 261°
2026-05-07 17:13 33.94604 -118.40612 93 ft 4 kts 261°
2026-05-07 17:13 33.94608 -118.40579 93 ft 4 kts 268°
2026-05-07 17:13 33.94605 -118.40550 93 ft 4 kts 311°
2026-05-07 17:13 33.94599 -118.40543 93 ft 0 kts
2026-05-07 17:17 33.94603 -118.40543 95 ft 4 kts
2026-05-07 17:17 33.94635 -118.40545 93 ft 4 kts 354°
2026-05-07 17:17 33.94658 -118.40548 93 ft 4 kts 355°
2026-05-07 17:18 33.94753 -118.40567 93 ft 8 kts 340°
2026-05-07 17:18 33.94802 -118.40588 93 ft 8 kts 340°
2026-05-07 17:18 33.94855 -118.40595 94 ft 6 kts 26°
2026-05-07 17:19 33.94868 -118.40550 96 ft 8 kts 83°
2026-05-07 17:19 33.94879 -118.40453 96 ft 15 kts 82°
2026-05-07 17:19 33.94892 -118.40325 94 ft 15 kts 84°
2026-05-07 17:19 33.94903 -118.40211 95 ft 13 kts 83°
2026-05-07 17:20 33.94913 -118.40110 95 ft 12 kts 83°
2026-05-07 17:20 33.94922 -118.40017 93 ft 11 kts 83°
2026-05-07 17:20 33.94938 -118.39937 93 ft 9 kts 58°
2026-05-07 17:20 33.94952 -118.39923 93 ft 0 kts 34°
2026-05-07 17:21 33.94970 -118.39910 92 ft 8 kts 22°
2026-05-07 17:22 33.95023 -118.39914 94 ft 7 kts 345°
2026-05-07 17:22 33.95042 -118.39940 93 ft 3 kts 265°
2026-05-07 17:22 33.95041 -118.39961 93 ft 3 kts 265°
2026-05-07 17:22 33.95022 -118.40153 98 ft 56 kts 263°
2026-05-07 17:23 33.94946 -118.40889 98 ft 118 kts 263°
2026-05-07 17:23 33.94823 -118.42065 174 ft 156 kts 263°
2026-05-07 17:23 33.94693 -118.43321 832 ft 151 kts 263°
2026-05-07 17:23 33.94553 -118.44568 1494 ft 149 kts 262°
2026-05-07 17:24 33.94401 -118.45826 1962 ft 159 kts 262°
2026-05-07 17:24 33.94233 -118.47237 2239 ft 182 kts 262°
2026-05-07 17:24 33.94050 -118.48839 2527 ft 204 kts 262°
2026-05-07 17:24 33.93851 -118.50646 2857 ft 228 kts 262°
2026-05-07 17:25 33.93784 -118.51268 3029 ft 234 kts 263°
2026-05-07 17:25 33.93438 -118.54600 3867 ft 264 kts 263°
2026-05-07 17:25 33.93209 -118.56842 4636 ft 271 kts 263°
2026-05-07 17:25 33.92957 -118.59109 5502 ft 275 kts 262°
2026-05-07 17:26 33.92603 -118.61382 6371 ft 278 kts 250°
2026-05-07 17:26 33.91562 -118.63370 7097 ft 286 kts 224°
2026-05-07 17:26 33.89889 -118.64681 7863 ft 290 kts 199°
2026-05-07 17:26 33.87914 -118.65020 8617 ft 293 kts 174°
2026-05-07 17:27 33.85977 -118.64271 9345 ft 296 kts 147°
2026-05-07 17:27 33.84500 -118.62556 10069 ft 297 kts 121°
2026-05-07 17:27 33.83796 -118.60241 10831 ft 297 kts 95°
2026-05-07 17:27 33.83989 -118.57811 11617 ft 296 kts 70°
2026-05-07 17:28 33.85017 -118.55670 12325 ft 302 kts 52°
2026-05-07 17:28 33.86364 -118.53610 12518 ft 324 kts 51°
2026-05-07 17:28 33.87831 -118.51439 12854 ft 340 kts 51°
2026-05-07 17:28 33.89347 -118.49215 13480 ft 346 kts 50°
2026-05-07 17:29 33.90880 -118.46962 14177 ft 349 kts 50°
2026-05-07 17:29 33.92419 -118.44684 14869 ft 351 kts 50°
2026-05-07 17:29 33.93925 -118.42349 15554 ft 353 kts 53°
2026-05-07 17:29 33.95335 -118.39952 16209 ft 356 kts 54°
2026-05-07 17:30 33.96723 -118.37467 16853 ft 359 kts 55°
2026-05-07 17:30 33.98102 -118.34952 17476 ft 361 kts 55°
2026-05-07 17:30 33.99493 -118.32419 18089 ft 364 kts 54°
2026-05-07 17:30 34.00904 -118.29875 18703 ft 366 kts 54°
2026-05-07 17:31 34.02337 -118.27320 19284 ft 369 kts 54°
2026-05-07 17:31 34.03795 -118.24747 19837 ft 372 kts 54°
2026-05-07 17:31 34.05267 -118.22159 20382 ft 376 kts 53°
2026-05-07 17:31 34.06755 -118.19548 20939 ft 378 kts 53°
2026-05-07 17:32 34.07924 -118.17490 21356 ft 381 kts 53°
2026-05-07 17:32 34.09469 -118.14751 21862 ft 385 kts 54°
2026-05-07 17:32 34.10959 -118.12105 22344 ft 388 kts 54°
2026-05-07 17:32 34.12481 -118.09402 22808 ft 391 kts 54°
2026-05-07 17:33 34.14015 -118.06683 23253 ft 394 kts 53°
2026-05-07 17:33 34.15564 -118.03933 23693 ft 397 kts 54°
2026-05-07 17:33 34.17122 -118.01162 24122 ft 400 kts 53°
2026-05-07 17:33 34.18691 -117.98377 24535 ft 402 kts 53°
2026-05-07 17:34 34.20266 -117.95584 24912 ft 404 kts 53°
2026-05-07 17:34 34.21854 -117.92772 25263 ft 406 kts 54°
2026-05-07 17:34 34.23449 -117.89937 25584 ft 409 kts 54°
2026-05-07 17:34 34.25049 -117.87081 25943 ft 412 kts 54°
2026-05-07 17:35 34.26661 -117.84196 26300 ft 414 kts 54°
2026-05-07 17:35 34.28259 -117.81335 26622 ft 417 kts 54°
2026-05-07 17:35 34.29894 -117.78413 26937 ft 419 kts 54°
2026-05-07 17:35 34.31536 -117.75476 27280 ft 422 kts 54°
2026-05-07 17:36 34.33186 -117.72525 27603 ft 423 kts 54°
2026-05-07 17:36 34.34839 -117.69569 27922 ft 425 kts 54°
2026-05-07 17:36 34.36499 -117.66649 28226 ft 427 kts 53°
2026-05-07 17:36 34.38229 -117.63716 28534 ft 428 kts 52°
2026-05-07 17:37 34.39993 -117.60798 28831 ft 430 kts 52°
2026-05-07 17:37 34.41772 -117.57876 29119 ft 432 kts 52°
2026-05-07 17:37 34.43559 -117.54933 29385 ft 434 kts 52°
2026-05-07 17:37 34.45345 -117.51971 29648 ft 436 kts 52°
2026-05-07 17:38 34.47126 -117.48994 29899 ft 437 kts 52°
2026-05-07 17:38 34.48912 -117.45993 30142 ft 439 kts 52°
2026-05-07 17:38 34.50697 -117.42985 30390 ft 440 kts 52°
2026-05-07 17:38 34.52487 -117.39959 30601 ft 442 kts 52°
2026-05-07 17:39 34.54252 -117.36970 30874 ft 441 kts 52°
2026-05-07 17:39 34.56041 -117.33942 31174 ft 441 kts 52°
2026-05-07 17:39 34.57832 -117.30915 31469 ft 440 kts 52°
2026-05-07 17:39 34.59621 -117.27895 31769 ft 439 kts 52°
2026-05-07 17:40 34.61406 -117.24885 32052 ft 439 kts 52°
2026-05-07 17:40 34.63188 -117.21876 32323 ft 438 kts 52°
2026-05-07 17:40 34.64965 -117.18862 32606 ft 438 kts 52°
2026-05-07 17:40 34.66734 -117.15855 32904 ft 437 kts 52°
2026-05-07 17:41 34.68504 -117.12849 33176 ft 436 kts 52°
2026-05-07 17:41 34.70249 -117.09885 33437 ft 436 kts 52°
2026-05-07 17:41 34.72014 -117.06891 33725 ft 435 kts 52°
2026-05-07 17:41 34.73782 -117.03892 34014 ft 434 kts 52°
2026-05-07 17:42 34.75536 -117.00909 34290 ft 433 kts 52°
2026-05-07 17:42 34.77288 -116.97924 34557 ft 433 kts 52°
2026-05-07 17:42 34.79013 -116.94984 34814 ft 432 kts 52°
2026-05-07 17:42 34.80760 -116.92000 35072 ft 432 kts 52°
2026-05-07 17:43 34.82505 -116.89014 35320 ft 431 kts 52°
2026-05-07 17:43 34.84247 -116.86035 35554 ft 431 kts 52°
2026-05-07 17:43 34.85985 -116.83064 35786 ft 430 kts 52°
2026-05-07 17:43 34.87700 -116.80129 35987 ft 430 kts 52°
2026-05-07 17:44 34.89432 -116.77158 36176 ft 430 kts 52°
2026-05-07 17:44 34.91166 -116.74182 36364 ft 430 kts 51°
2026-05-07 17:44 34.93050 -116.71373 36545 ft 427 kts 45°
2026-05-07 17:44 34.95080 -116.68712 36721 ft 427 kts 45°
2026-05-07 17:45 34.97100 -116.66061 36931 ft 426 kts 45°
2026-05-07 17:45 34.99107 -116.63421 37063 ft 424 kts 45°
2026-05-07 17:45 35.03093 -116.58170 37090 ft 420 kts 45°
2026-05-07 17:46 35.07059 -116.52938 37086 ft 419 kts 45°
2026-05-07 17:46 35.11010 -116.47713 37084 ft 418 kts 45°
2026-05-07 17:47 35.14931 -116.42521 37092 ft 418 kts 45°
2026-05-07 17:47 35.18865 -116.37306 37088 ft 417 kts 45°
2026-05-07 17:48 35.22805 -116.32080 37091 ft 417 kts 45°
2026-05-07 17:48 35.26739 -116.26850 37094 ft 416 kts 46°
2026-05-07 17:49 35.30635 -116.21655 37104 ft 416 kts 46°
2026-05-07 17:49 35.34548 -116.16423 37114 ft 416 kts 46°
2026-05-07 17:50 35.38461 -116.11196 37100 ft 415 kts 46°
2026-05-07 17:50 35.42367 -116.05971 37108 ft 415 kts 46°
2026-05-07 17:51 35.46261 -116.00757 37100 ft 414 kts 46°
2026-05-07 17:51 35.50122 -115.95571 37109 ft 413 kts 46°
2026-05-07 17:52 35.53995 -115.90358 37106 ft 412 kts 46°
2026-05-07 17:52 35.57861 -115.85158 37109 ft 412 kts 46°
2026-05-07 17:53 35.61722 -115.79961 37108 ft 412 kts 46°
2026-05-07 17:53 35.65567 -115.74741 37112 ft 411 kts 47°
2026-05-07 17:54 35.69356 -115.69528 37112 ft 411 kts 47°
2026-05-07 17:54 35.73169 -115.64270 37117 ft 411 kts 47°
2026-05-07 17:55 35.76976 -115.59013 37122 ft 411 kts 47°
2026-05-07 17:55 35.80785 -115.53760 37125 ft 411 kts 47°
2026-05-07 17:56 35.84577 -115.48512 37125 ft 412 kts 47°
2026-05-07 17:56 35.88394 -115.43224 37129 ft 411 kts 47°
2026-05-07 17:57 35.91556 -115.38835 37127 ft 412 kts 47°
2026-05-07 17:57 35.96010 -115.32659 37134 ft 412 kts 47°
2026-05-07 17:58 35.99819 -115.27366 37135 ft 412 kts 47°
2026-05-07 17:58 36.03619 -115.22062 37138 ft 412 kts 47°
2026-05-07 17:59 36.07403 -115.16785 37132 ft 412 kts 46°
2026-05-07 17:59 36.11631 -115.12027 37126 ft 410 kts 40°
2026-05-07 18:00 36.15943 -115.07399 37119 ft 410 kts 40°
2026-05-07 18:00 36.20263 -115.02758 37109 ft 410 kts 40°
2026-05-07 18:01 36.24545 -114.98142 37101 ft 410 kts 40°
2026-05-07 18:01 36.28851 -114.93482 37081 ft 410 kts 40°
2026-05-07 18:02 36.35296 -114.86494 37073 ft 410 kts 40°
2026-05-07 18:03 36.39519 -114.81921 37072 ft 410 kts 40°
2026-05-07 18:03 36.43823 -114.77255 37074 ft 410 kts 40°
2026-05-07 18:04 36.47404 -114.73366 37077 ft 410 kts 40°
2026-05-07 18:04 36.51696 -114.68687 37077 ft 410 kts 40°
2026-05-07 18:05 36.55990 -114.64004 37078 ft 410 kts 40°
2026-05-07 18:05 36.60258 -114.59341 37080 ft 410 kts 40°
2026-05-07 18:06 36.64555 -114.54639 37081 ft 411 kts 40°
2026-05-07 18:06 36.68842 -114.49935 37089 ft 410 kts 40°
2026-05-07 18:07 36.73381 -114.45653 37093 ft 409 kts 31°
2026-05-07 18:07 36.78180 -114.41905 37102 ft 409 kts 31°
2026-05-07 18:08 36.83004 -114.38119 37104 ft 409 kts 31°
2026-05-07 18:08 36.87828 -114.34325 37112 ft 409 kts 31°
2026-05-07 18:09 36.92654 -114.30525 37120 ft 410 kts 31°
2026-05-07 18:09 36.97488 -114.26724 37123 ft 410 kts 31°
2026-05-07 18:10 37.02294 -114.22942 37126 ft 410 kts 31°
2026-05-07 18:10 37.07134 -114.19123 37132 ft 411 kts 31°
2026-05-07 18:11 37.11977 -114.15286 37136 ft 411 kts 31°
2026-05-07 18:11 37.16827 -114.11444 37139 ft 412 kts 31°
2026-05-07 18:12 37.21640 -114.07625 37131 ft 412 kts 31°
2026-05-07 18:12 37.26490 -114.03758 37133 ft 413 kts 31°
2026-05-07 18:13 37.31347 -113.99885 37138 ft 413 kts 31°
2026-05-07 18:13 37.36175 -113.96035 37142 ft 413 kts 31°
2026-05-07 18:14 37.41040 -113.92166 37144 ft 413 kts 31°
2026-05-07 18:14 37.45894 -113.88286 37149 ft 413 kts 31°
2026-05-07 18:15 37.50721 -113.84408 37153 ft 414 kts 31°
2026-05-07 18:15 37.55586 -113.80503 37159 ft 414 kts 30°
2026-05-07 18:16 37.60447 -113.76602 37161 ft 414 kts 30°
2026-05-07 18:16 37.65313 -113.72688 37171 ft 414 kts 31°
2026-05-07 18:17 37.70170 -113.68765 37174 ft 415 kts 31°
2026-05-07 18:17 37.75011 -113.64847 37194 ft 415 kts 31°
2026-05-07 18:18 37.79875 -113.60913 37204 ft 415 kts 31°
2026-05-07 18:18 37.84739 -113.56973 37210 ft 415 kts 31°
2026-05-07 18:19 37.89572 -113.53057 37214 ft 415 kts 31°
2026-05-07 18:19 37.94333 -113.48888 37214 ft 417 kts 39°
2026-05-07 18:20 37.98657 -113.43978 37210 ft 417 kts 39°
2026-05-07 18:20 38.02989 -113.39064 37208 ft 417 kts 39°
2026-05-07 18:21 38.07286 -113.34179 37207 ft 418 kts 39°
2026-05-07 18:21 38.10850 -113.30134 37207 ft 418 kts 39°
2026-05-07 18:22 38.15164 -113.25230 37203 ft 418 kts 39°
2026-05-07 18:22 38.19336 -113.20471 37200 ft 418 kts 39°
2026-05-07 18:23 38.23671 -113.15514 37199 ft 418 kts 39°
2026-05-07 18:23 38.27991 -113.10565 37197 ft 419 kts 39°
2026-05-07 18:24 38.32296 -113.05628 37198 ft 419 kts 39°
2026-05-07 18:24 38.36865 -113.01083 37198 ft 414 kts 26°
2026-05-07 18:25 38.42095 -112.98095 37199 ft 411 kts 20°
2026-05-07 18:25 38.47387 -112.95290 37197 ft 411 kts 20°
2026-05-07 18:26 38.52637 -112.92486 37198 ft 412 kts 20°
2026-05-07 18:26 38.57947 -112.89636 37200 ft 411 kts 20°
2026-05-07 18:27 38.63196 -112.86830 37199 ft 411 kts 20°
2026-05-07 18:27 38.68481 -112.84008 37203 ft 411 kts 20°
2026-05-07 18:28 38.73764 -112.81184 37204 ft 411 kts 20°
2026-05-07 18:28 38.79033 -112.78347 37204 ft 410 kts 20°
2026-05-07 18:29 38.84293 -112.75501 37204 ft 410 kts 20°
2026-05-07 18:29 38.89525 -112.72672 37200 ft 410 kts 20°
2026-05-07 18:30 38.94787 -112.69829 37197 ft 409 kts 20°
2026-05-07 18:30 39.00011 -112.67003 37193 ft 409 kts 20°
2026-05-07 18:31 39.05261 -112.64156 37181 ft 409 kts 19°
2026-05-07 18:31 39.10516 -112.61305 37181 ft 409 kts 19°
2026-05-07 18:32 39.15734 -112.58466 36850 ft 408 kts 19°
2026-05-07 18:32 39.18350 -112.57042 36596 ft 408 kts 19°
2026-05-07 18:32 39.21007 -112.55594 35974 ft 410 kts 19°
2026-05-07 18:32 39.23610 -112.54171 35178 ft 412 kts 19°
2026-05-07 18:33 39.26259 -112.52724 34401 ft 414 kts 19°
2026-05-07 18:33 39.28921 -112.51273 33550 ft 417 kts 19°
2026-05-07 18:33 39.31674 -112.50066 32580 ft 419 kts 11°
2026-05-07 18:33 39.34511 -112.49125 31584 ft 424 kts 11°
2026-05-07 18:34 39.37355 -112.48187 31023 ft 418 kts 11°
2026-05-07 18:34 39.40163 -112.47258 30391 ft 414 kts 11°
2026-05-07 18:34 39.42950 -112.46335 29755 ft 411 kts 11°
2026-05-07 18:34 39.45722 -112.45417 29129 ft 407 kts 10°
2026-05-07 18:35 39.48455 -112.44511 28506 ft 404 kts 10°
2026-05-07 18:35 39.51169 -112.43608 27918 ft 401 kts 11°
2026-05-07 18:35 39.53825 -112.42723 27329 ft 397 kts 10°
2026-05-07 18:35 39.56499 -112.41834 26735 ft 394 kts 10°
2026-05-07 18:36 39.59153 -112.40951 26155 ft 391 kts 10°
2026-05-07 18:36 39.61780 -112.40077 25582 ft 388 kts 10°
2026-05-07 18:36 39.64388 -112.39207 25020 ft 385 kts 10°
2026-05-07 18:36 39.66967 -112.38345 24486 ft 381 kts 10°
2026-05-07 18:37 39.69534 -112.37490 23944 ft 378 kts 10°
2026-05-07 18:37 39.72037 -112.36651 23461 ft 375 kts 10°
2026-05-07 18:37 39.74553 -112.35808 22957 ft 372 kts 10°
2026-05-07 18:37 39.77046 -112.34971 22498 ft 368 kts 10°
2026-05-07 18:38 39.79511 -112.34140 22032 ft 364 kts 10°
2026-05-07 18:38 39.81967 -112.33314 21577 ft 361 kts 10°
2026-05-07 18:38 39.84394 -112.32499 21128 ft 358 kts 10°
2026-05-07 18:38 39.86788 -112.31694 20677 ft 353 kts 10°
2026-05-07 18:39 39.89129 -112.30910 20227 ft 350 kts 10°
2026-05-07 18:39 39.91480 -112.30120 19747 ft 348 kts 10°
2026-05-07 18:39 39.93816 -112.29337 19293 ft 345 kts 10°
2026-05-07 18:39 39.96138 -112.28558 18840 ft 343 kts 10°
2026-05-07 18:40 39.98449 -112.27782 18366 ft 342 kts
2026-05-07 18:40 40.00750 -112.27011 17892 ft 340 kts 10°
2026-05-07 18:40 40.03047 -112.26236 17326 ft 342 kts 10°
2026-05-07 18:40 40.05351 -112.25455 16913 ft 341 kts 10°
2026-05-07 18:41 40.07628 -112.24681 16801 ft 344 kts 10°
2026-05-07 18:41 40.09947 -112.23896 16608 ft 345 kts 10°
2026-05-07 18:41 40.12269 -112.23108 16432 ft 345 kts 10°
2026-05-07 18:41 40.14592 -112.22319 16261 ft 344 kts 10°
2026-05-07 18:42 40.16908 -112.21535 16082 ft 344 kts 10°
2026-05-07 18:42 40.19235 -112.20745 15885 ft 344 kts 10°
2026-05-07 18:42 40.21549 -112.19959 15699 ft 343 kts 10°
2026-05-07 18:42 40.23857 -112.19176 15529 ft 343 kts 10°
2026-05-07 18:43 40.26146 -112.18399 15360 ft 343 kts 11°
2026-05-07 18:43 40.28453 -112.17615 15171 ft 343 kts 11°
2026-05-07 18:43 40.30759 -112.16828 14996 ft 341 kts 11°
2026-05-07 18:43 40.33058 -112.16043 14884 ft 341 kts 11°
2026-05-07 18:44 40.35356 -112.15256 14755 ft 342 kts 11°
2026-05-07 18:44 40.37656 -112.14472 14609 ft 342 kts 11°
2026-05-07 18:44 40.39963 -112.13687 14479 ft 341 kts 11°
2026-05-07 18:44 40.42240 -112.12910 14360 ft 332 kts 11°
2026-05-07 18:45 40.44437 -112.12154 14244 ft 319 kts 11°
2026-05-07 18:45 40.46553 -112.11427 14082 ft 309 kts 10°
2026-05-07 18:45 40.48589 -112.10730 13915 ft 304 kts 10°
2026-05-07 18:45 40.50659 -112.10028 13660 ft 303 kts 10°
2026-05-07 18:46 40.52673 -112.09349 13396 ft 302 kts 10°
2026-05-07 18:46 40.54709 -112.08665 13128 ft 302 kts 10°
2026-05-07 18:46 40.56763 -112.08253 12869 ft 296 kts 359°
2026-05-07 18:46 40.58821 -112.08115 12612 ft 296 kts 359°
2026-05-07 18:47 40.60879 -112.07975 12350 ft 295 kts 359°
2026-05-07 18:47 40.62936 -112.07837 12084 ft 295 kts 358°
2026-05-07 18:47 40.64962 -112.07993 11929 ft 291 kts 351°
2026-05-07 18:47 40.65629 -112.08075 11903 ft 292 kts 351°
2026-05-07 18:48 40.66978 -112.08238 11839 ft 292 kts 351°
2026-05-07 18:48 40.67660 -112.08319 11803 ft 292 kts 351°
2026-05-07 18:49 40.76831 -112.09384 11324 ft 293 kts 351°
2026-05-07 18:49 40.78858 -112.09628 11220 ft 292 kts 351°
2026-05-07 18:49 40.80887 -112.09871 11089 ft 292 kts 352°
2026-05-07 18:49 40.82899 -112.10102 10990 ft 284 kts 352°
2026-05-07 18:50 40.84818 -112.10318 11005 ft 269 kts 352°
2026-05-07 18:50 40.86624 -112.10518 11007 ft 254 kts 352°
2026-05-07 18:50 40.88335 -112.10701 11009 ft 246 kts 352°
2026-05-07 18:50 40.90041 -112.10882 11010 ft 244 kts 352°
2026-05-07 18:51 40.91734 -112.11060 11013 ft 244 kts 352°
2026-05-07 18:51 40.93422 -112.11230 10778 ft 242 kts 352°
2026-05-07 18:51 40.95095 -112.11401 10438 ft 241 kts 352°
2026-05-07 18:51 40.96773 -112.11565 10098 ft 242 kts 356°
2026-05-07 18:52 40.98425 -112.11134 9756 ft 247 kts 22°
2026-05-07 18:52 40.99762 -112.09725 9356 ft 254 kts 52°
2026-05-07 18:52 41.00451 -112.07597 8834 ft 254 kts 83°
2026-05-07 18:52 41.00280 -112.05293 8312 ft 252 kts 112°
2026-05-07 18:53 40.99323 -112.03400 7806 ft 246 kts 142°
2026-05-07 18:53 40.97911 -112.02276 7596 ft 230 kts 161°
2026-05-07 18:53 40.96389 -112.01769 7335 ft 224 kts 178°
2026-05-07 18:53 40.94854 -112.01590 7038 ft 222 kts 178°
2026-05-07 18:54 40.93334 -112.01411 6723 ft 217 kts 178°
2026-05-07 18:54 40.91842 -112.01235 6413 ft 212 kts 178°
2026-05-07 18:54 40.90397 -112.01066 6134 ft 206 kts 178°
2026-05-07 18:54 40.89004 -112.00908 5870 ft 195 kts 178°
2026-05-07 18:55 40.87699 -112.00752 5631 ft 181 kts 178°
2026-05-07 18:55 40.86478 -112.00602 5368 ft 170 kts 176°
2026-05-07 18:55 40.85356 -112.00461 5148 ft 158 kts 175°
2026-05-07 18:55 40.84294 -112.00333 4965 ft 151 kts 175°
2026-05-07 18:56 40.83259 -112.00213 4748 ft 148 kts 175°
2026-05-07 18:56 40.82234 -112.00094 4565 ft 148 kts 177°
2026-05-07 18:56 40.81208 -111.99983 4357 ft 147 kts 176°
2026-05-07 18:56 40.80211 -111.99871 4235 ft 132 kts 176°
2026-05-07 18:57 40.79459 -111.99779 4229 ft 84 kts 175°
2026-05-07 18:57 40.79047 -111.99729 4233 ft 41 kts 175°
2026-05-07 18:57 40.78816 -111.99651 4233 ft 28 kts 150°
2026-05-07 18:57 40.78739 -111.99568 4232 ft 10 kts 135°
2026-05-07 18:58 40.78685 -111.99498 4232 ft 12 kts 135°
2026-05-07 18:58 40.78635 -111.99404 4231 ft 13 kts 92°
2026-05-07 18:58 40.78647 -111.99289 4231 ft 12 kts 80°
2026-05-07 18:58 40.78660 -111.99153 4231 ft 17 kts 84°
2026-05-07 18:59 40.78672 -111.98994 4231 ft 18 kts 84°
2026-05-07 18:59 40.78683 -111.98823 4231 ft 19 kts 85°
2026-05-07 18:59 40.78695 -111.98638 4231 ft 21 kts 84°
2026-05-07 18:59 40.78709 -111.98440 4231 ft 22 kts 85°
2026-05-07 19:00 40.78720 -111.98254 4231 ft 15 kts 86°
2026-05-07 19:00 40.78691 -111.98197 4231 ft 8 kts 174°
2026-05-07 19:00 40.78648 -111.98193 4231 ft 2 kts 176°
2026-05-07 19:00 40.78643 -111.98193 4231 ft 0 kts 175°